Regional Weather Roundup
Issued by NWS

Home | Current Version | Previous Version | Graphics & Text | Print | Product List | Glossary On
Versions: 1 2 3 4 5 6 7 8 9 10 11 12 13 14 15 16 17 18 19 20 21 22 23 24 25 26 27 28 29 30 31 32 33 34 35 36 37 38 39 40 41 42 43 44 45 46 47 48 49 50
051
ASUS43 KMKX 101021
RWRWI

WISCONSIN REGIONAL WEATHER ROUNDUP
NATIONAL WEATHER SERVICE MILWAUKEE/SULLIVAN WI
400 AM CST WED FEB 10 2016

NOTE: "FAIR" INDICATES FEW OR NO CLOUDS BELOW 12,000 FEET WITH NO
SIGNIFICANT WEATHER AND/OR OBSTRUCTIONS TO VISIBILITY.

WIZ001-002-006>008-014>016-023>028-101100-
NORTHWEST WISCONSIN

CITY           SKY/WX    TMP DP  RH WIND       PRES   REMARKS
SUPERIOR ARPT  CLOUDY    -3  -9  76 NW7       30.13S WCI -17
ASHLAND        CLOUDY     4  -2  76 N9        30.07F WCI -10
HAYWARD        CLOUDY     2  -4  76 NW5       30.02F WCI  -8
SIREN          CLOUDY   -10 -15  80 CALM      30.09F
CUMBERLAND     CLOUDY    -4  -9  77 W3        30.04F
RICE LAKE      CLOUDY    -1  -6  80 CALM      30.06F
CHETEK         CLOUDY    -4  -8  84 CALM      30.05F
LADYSMITH      CLOUDY     2  -3  78 NW3       30.02F
EAU CLAIRE     CLOUDY     0  -8  69 NW6       30.06F WCI -12
MENOMONIE      CLOUDY     1  -8  67 NW7       30.08F WCI -12
NEW RICHMOND   PTCLDY    -3  -8  78 N6        30.09S WCI -15
OSCEOLA        PTCLDY     1  -5  76 NW3       30.13F
$$

WIZ003>005-009-010-017-018-101100-
NORTH CENTRAL WISCONSIN

CITY           SKY/WX    TMP DP  RH WIND       PRES   REMARKS
MANITOWISH WTR LGT SNOW   4   0  83 NW5       29.92S WCI  -6
ARBOR VITAE    CLOUDY     6   0  79 N6        29.92S WCI  -5
WOODRUFF       CLOUDY     6   0  79 N6        29.92S WCI  -5
RHINELANDER    CLOUDY     4  -3  73 N3        29.91S
EAGLE RIVER    CLOUDY     4  -5  65 NW10G16   29.90S WCI -11
LAND O LAKES   LGT SNOW   4  -1  78 NW8       29.91S WCI  -9
PHILLIPS       CLOUDY     2  -4  76 NW9G16    29.96S WCI -12
TOMAHAWK       CLOUDY     4  -1  77 NW7       29.94S WCI  -8
MEDFORD        CLOUDY     4  -2  75 NW9       29.95F WCI -10
MERRILL        CLOUDY     6   0  74 NW6       29.96S WCI  -4
$$

WIZ029-030-035-036-043>047-101100-
CENTRAL WISCONSIN

CITY           SKY/WX    TMP DP  RH WIND       PRES   REMARKS
WAUSAU         CLOUDY     8  -1  66 NW10G20   29.95R WCI  -6
MOSINEE        CLOUDY     7   1  78 NW10G17   29.96S WCI  -8
MARSHFIELD     CLOUDY     5  -4  66 NW12      29.97S WCI -11
STEVENS POINT  CLOUDY     6  -2  68 W5        29.97R WCI  -2
WAUPACA        CLOUDY    12  -2  53 NW13      29.97S WCI  -3
WAUTOMA        CLOUDY    10  -1  61 NW10      29.99S WCI  -4
WISC RAPIDS    CLOUDY     7  -4  60 NW9       30.01R WCI  -7
CAMP DOUGLAS   CLEAR      1  -4  80 W8        30.02S WCI -13
$$

WIZ011>013-019>022-031-037>040-048>050-101100-
NORTHEAST WISCONSIN

CITY           SKY/WX    TMP DP  RH WIND       PRES   REMARKS
ANTIGO         CLOUDY     4  -5  66 N13       29.91R WCI -13
SHAWANO        CLOUDY    11  -4  51 N14       29.96S WCI  -5
OCONTO         CLEAR      7  -4  59 NW7       29.95S WCI  -4
STURGEON BAY   MOCLDY     7  -6  56 NW16G23   29.93S WCI -11
GREEN BAY      CLEAR      7  -5  57 NW14      29.95S WCI -10
MANITOWOC      CLEAR      8  -2  63 NW15      29.94R WCI  -9
APPLETON       CLEAR      9  -4  56 NW16      29.92S WCI  -9
CLINTONVILLE   CLOUDY    10  -4  52 N8        29.96S WCI  -1
OSHKOSH        MOCLDY    10  -3  55 NW14      29.94F WCI  -6
$$

WIZ032>034-041-042-053>061-101100-
SOUTHWEST WISCONSIN

CITY           SKY/WX    TMP DP  RH WIND       PRES   REMARKS
LA CROSSE      CLOUDY     2  -8  63 N5        30.08F WCI  -8
SPARTA         PTCLDY     2  -5  72 NW3       30.06S
VIROQUA        CLOUDY     0  -7  71 NW8       30.00S WCI -14
BOSCOBEL       PTCLDY    -4  -7  87 CALM      30.07F
PRAIRIE DU CHI CLOUDY     2  -6  69 CALM      30.08F
PLATTEVILLE    CLEAR      2  -4  75 W5        30.02S WCI  -7
$$

WIZ056-057-062-063-064-067-068-101100-
SOUTH CENTRAL WISCONSIN

CITY           SKY/WX    TMP DP  RH WIND       PRES   REMARKS
REEDSBURG      MOCLDY     5  -4  68 NW8       30.01S WCI  -9
BARABOO/DELLS  CLOUDY     7  -2  67 NW8       30.00R WCI  -6
LONE ROCK      PTCLDY     3  -6  66 W6        30.05S WCI  -8
MINERAL POINT  CLEAR      5  -4  66 N6        29.99F WCI  -6
MADISON        CLOUDY     7   0  73 W6        29.99F WCI  -3
MIDDLETON      CLOUDY     9   1  70 W10       30.00R WCI  -5
WATERTOWN      CLOUDY    10   0  64 NW10G17   29.95F WCI  -4
MONROE         CLEAR      5   0  78 W8        29.98S WCI  -8
JANESVILLE     CLOUDY    12   3  67 NW12      29.98F WCI  -2
$$

WIZ051-052-058>065-066-070>072-101100-
SOUTHEAST WISCONSIN

CITY           SKY/WX    TMP DP  RH WIND       PRES   REMARKS
MILWAUKEE      CLEAR     10   0  63 NW12      29.95R WCI  -5
WAUKESHA       CLEAR      7   0  72 NW10      29.95S WCI  -8
MILWAUKEE/TIMM CLEAR     10   0  61 W12       29.95S WCI  -4
RACINE         MOCLDY    10  -1  61 NW7       29.97R WCI  -1
BURLINGTON     CLEAR      6  -2  69 NW9       29.95F WCI  -8
KENOSHA        CLOUDY    10   0  63 NW12      29.96R WCI  -5
FOND DU LAC    CLOUDY    11   1  64 NW12      29.95S WCI  -3
SHEBOYGAN      CLEAR      8  -3  61 NW12      29.93S WCI  -7
WEST BEND      CLEAR      9   0  66 CALM      29.93S
JUNEAU         PTCLDY     9   0  66 NW6       29.95F WCI  -1
$$

LSZ147-162-101100-
LAKE SUPERIOR

STATION/POSITION TIME  TEMP    WIND        PRES    WAVE
                       AIR SEA DIR/SP/G            HT/PER
                 (UTC) (F)     (DEG/KT/KT) (MB)    (FT/S)
DEVILS ISLAND    1000    5     360/ 17/ 21 1020.5F
SAXON HARBOR     0940    9                 1017.3S
$$

LMZ867-665-643>646-101100-
LAKE MICHIGAN

STATION/POSITION TIME  TEMP    WIND        PRES    WAVE
                       AIR SEA DIR/SP/G            HT/PER
                 (UTC) (F)     (DEG/KT/KT) (MB)    (FT/S)
CHAMBERS ISLAND  0900    9     300/ 15/ 22 1013.2R
ALGOMA LAKESHORE 0911          330/ 11/ 16   N/A
KEWAUNEE LAKESHO 0900    9     310/ 13/ 19 1012.5R
SHEBOYGAN LAKESH 1000   10     310/ 13/ 16 1015.1R
PORT WASHINGTON  0910   10     310/  8/ 13 1014.9R
MILWAUKEE LAKESH 1010   12     310/  9/ 13   N/A
KENOSHA   LAKESH 1000   11     300/ 11/ 16 1014.6R
$$

TC  - TEMPERATURE IN CELSIUS
VSB - VISIBILITY IN STATUTE MILES
WCI - WIND CHILL INDEX
HX  - HEAT INDEX





USA.gov is the U.S. government's official web portal to all federal, state and local government web resources and services.